Time,TemperatureF,DewpointF,PressureIn,WindDirection,WindDirectionDegrees,WindSpeedMPH,WindSpeedGustMPH,Humidity,HourlyPrecipIn,Conditions,Clouds,dailyrainin,SoftwareType,DateUTC
2013-09-15 00:01:00,50.1,45.5,30.08,South,191,0.0,0.0,84,0.00,CLR,CLR,0.00,WeatherDisplay:10.36,2013-09-15 04:01:00,
2013-09-15 00:02:00,50.1,45.5,30.07,South,191,0.0,0.0,84,0.00,CLR,CLR,0.00,WeatherDisplay:10.36,2013-09-15 04:02:00,
2013-09-15 00:05:00,49.9,45.3,30.07,South,191,0.0,0.0,84,0.00,CLR,CLR,0.00,WeatherDisplay:10.36,2013-09-15 04:05:00,
2013-09-15 00:08:00,49.9,45.6,30.07,South,191,0.0,0.0,85,0.00,CLR,CLR,0.00,WeatherDisplay:10.36,2013-09-15 04:08:00,
2013-09-15 00:13:00,49.8,45.5,30.08,South,191,0.0,0.0,85,0.00,CLR,CLR,0.00,WeatherDisplay:10.36,2013-09-15 04:13:00,
2013-09-15 00:18:00,49.6,45.3,30.07,South,191,0.0,0.0,85,0.00,CLR,CLR,0.00,WeatherDisplay:10.36,2013-09-15 04:18:00,
2013-09-15 00:23:00,49.5,45.2,30.07,South,191,0.0,0.0,85,0.00,CLR,CLR,0.00,WeatherDisplay:10.36,2013-09-15 04:23:00,
2013-09-15 00:28:00,49.4,45.4,30.08,South,191,0.0,0.0,86,0.00,CLR,CLR,0.00,WeatherDisplay:10.36,2013-09-15 04:28:00,
2013-09-15 00:33:00,49.4,45.4,30.07,South,191,0.0,0.0,86,0.00,CLR,CLR,0.00,WeatherDisplay:10.36,2013-09-15 04:33:00,
2013-09-15 00:38:00,49.2,45.2,30.07,South,191,0.0,0.0,86,0.00,CLR,CLR,0.00,WeatherDisplay:10.36,2013-09-15 04:38:00,
2013-09-15 00:43:00,49.2,45.2,30.07,South,191,0.0,0.0,86,0.00,CLR,CLR,0.00,WeatherDisplay:10.36,2013-09-15 04:43:00,
2013-09-15 00:48:00,49.2,45.5,30.07,South,191,0.0,0.0,87,0.00,CLR,CLR,0.00,WeatherDisplay:10.36,2013-09-15 04:48:00,
2013-09-15 00:53:00,49.1,45.4,30.07,South,191,0.0,0.0,87,0.00,CLR,CLR,0.00,WeatherDisplay:10.36,2013-09-15 04:53:00,
2013-09-15 00:58:00,48.9,45.2,30.07,South,191,0.0,0.0,87,0.00,CLR,CLR,0.00,WeatherDisplay:10.36,2013-09-15 04:58:00,
2013-09-15 01:03:00,48.9,45.2,30.07,South,191,0.0,0.0,87,0.00,CLR,CLR,0.00,WeatherDisplay:10.36,2013-09-15 05:03:00,
2013-09-15 01:08:00,48.8,45.1,30.08,South,191,0.0,0.0,87,0.00,CLR,CLR,0.00,WeatherDisplay:10.36,2013-09-15 05:08:00,
2013-09-15 01:13:00,48.8,45.4,30.08,South,191,0.0,0.0,88,0.00,CLR,CLR,0.00,WeatherDisplay:10.36,2013-09-15 05:13:00,
2013-09-15 01:18:00,48.8,45.1,30.08,South,191,0.0,0.0,87,0.00,CLR,CLR,0.00,WeatherDisplay:10.36,2013-09-15 05:18:00,
2013-09-15 01:23:00,48.6,44.9,30.08,South,191,0.0,0.0,87,0.00,CLR,CLR,0.00,WeatherDisplay:10.36,2013-09-15 05:23:00,
2013-09-15 01:28:00,48.3,44.6,30.08,South,191,0.0,0.0,87,0.00,CLR,CLR,0.00,WeatherDisplay:10.36,2013-09-15 05:28:00,
2013-09-15 01:33:00,48.2,44.5,30.08,South,191,0.0,0.0,87,0.00,CLR,CLR,0.00,WeatherDisplay:10.36,2013-09-15 05:33:00,
2013-09-15 01:38:00,48.0,44.3,30.08,South,191,0.0,0.0,87,0.00,CLR,CLR,0.00,WeatherDisplay:10.36,2013-09-15 05:38:00,
2013-09-15 01:43:00,48.0,44.6,30.08,South,191,0.0,0.0,88,0.00,CLR,CLR,0.00,WeatherDisplay:10.36,2013-09-15 05:43:00,
2013-09-15 01:48:00,47.9,44.5,30.08,South,191,0.0,0.0,88,0.00,CLR,CLR,0.00,WeatherDisplay:10.36,2013-09-15 05:48:00,
2013-09-15 01:53:00,47.9,44.5,30.08,South,191,0.0,0.0,88,0.00,CLR,CLR,0.00,WeatherDisplay:10.36,2013-09-15 05:53:00,
2013-09-15 01:58:00,47.9,44.5,30.08,South,191,0.0,0.0,88,0.00,CLR,CLR,0.00,WeatherDisplay:10.36,2013-09-15 05:58:00,
2013-09-15 02:03:00,47.7,44.3,30.08,South,191,0.0,0.0,88,0.00,CLR,CLR,0.00,WeatherDisplay:10.36,2013-09-15 06:03:00,
2013-09-15 02:08:00,47.7,44.6,30.08,South,191,0.0,0.0,89,0.00,CLR,CLR,0.00,WeatherDisplay:10.36,2013-09-15 06:08:00,
2013-09-15 02:13:00,47.7,44.6,30.08,South,191,0.0,0.0,89,0.00,CLR,CLR,0.00,WeatherDisplay:10.36,2013-09-15 06:13:00,
2013-09-15 02:18:00,47.6,44.5,30.08,South,191,0.0,0.0,89,0.00,CLR,CLR,0.00,WeatherDisplay:10.36,2013-09-15 06:18:00,
2013-09-15 02:23:00,47.6,44.5,30.08,South,191,0.0,0.0,89,0.00,CLR,CLR,0.00,WeatherDisplay:10.36,2013-09-15 06:23:00,
2013-09-15 02:28:00,47.6,44.5,30.08,South,191,0.0,0.0,89,0.00,CLR,CLR,0.00,WeatherDisplay:10.36,2013-09-15 06:28:00,
2013-09-15 02:33:00,47.7,44.9,30.08,South,191,0.0,0.0,90,0.00,CLR,CLR,0.00,WeatherDisplay:10.36,2013-09-15 06:33:00,
2013-09-15 02:38:00,47.6,44.5,30.08,South,191,0.0,0.0,89,0.00,CLR,CLR,0.00,WeatherDisplay:10.36,2013-09-15 06:38:00,
2013-09-15 02:43:00,47.4,44.3,30.08,South,191,0.0,0.0,89,0.00,CLR,CLR,0.00,WeatherDisplay:10.36,2013-09-15 06:43:00,
2013-09-15 02:48:00,47.4,44.6,30.08,South,191,0.0,0.0,90,0.00,CLR,CLR,0.00,WeatherDisplay:10.36,2013-09-15 06:48:00,
2013-09-15 02:53:00,47.3,44.5,30.08,South,191,0.0,0.0,90,0.00,CLR,CLR,0.00,WeatherDisplay:10.36,2013-09-15 06:53:00,
2013-09-15 02:58:00,47.3,44.5,30.08,South,191,0.0,0.0,90,0.00,CLR,CLR,0.00,WeatherDisplay:10.36,2013-09-15 06:58:00,
2013-09-15 03:03:00,47.1,44.3,30.08,South,191,0.0,0.0,90,0.00,CLR,CLR,0.00,WeatherDisplay:10.36,2013-09-15 07:03:00,
2013-09-15 03:08:00,47.1,44.3,30.08,South,191,0.0,0.0,90,0.00,CLR,CLR,0.00,WeatherDisplay:10.36,2013-09-15 07:08:00,
2013-09-15 03:13:00,47.1,44.3,30.08,South,191,0.0,0.0,90,0.00,CLR,CLR,0.00,WeatherDisplay:10.36,2013-09-15 07:13:00,
2013-09-15 03:18:00,47.0,44.2,30.08,South,191,0.0,0.0,90,0.00,CLR,CLR,0.00,WeatherDisplay:10.36,2013-09-15 07:18:00,
2013-09-15 03:23:00,47.0,44.2,30.08,South,191,0.0,0.0,90,0.00,CLR,CLR,0.00,WeatherDisplay:10.36,2013-09-15 07:23:00,
2013-09-15 03:28:00,47.0,44.2,30.08,South,191,0.0,0.0,90,0.00,CLR,CLR,0.00,WeatherDisplay:10.36,2013-09-15 07:28:00,
2013-09-15 03:33:00,47.0,44.2,30.08,South,191,0.0,0.0,90,0.00,CLR,CLR,0.00,WeatherDisplay:10.36,2013-09-15 07:33:00,
2013-09-15 03:38:00,47.0,44.2,30.09,South,191,0.0,0.0,90,0.00,CLR,CLR,0.00,WeatherDisplay:10.36,2013-09-15 07:38:00,
2013-09-15 03:43:00,46.8,44.0,30.09,South,191,0.0,0.0,90,0.00,CLR,CLR,0.00,WeatherDisplay:10.36,2013-09-15 07:43:00,
2013-09-15 03:48:00,46.8,44.0,30.09,South,191,0.0,0.0,90,0.00,CLR,CLR,0.00,WeatherDisplay:10.36,2013-09-15 07:48:00,
2013-09-15 03:53:00,46.7,43.9,30.09,South,191,0.0,0.0,90,0.00,CLR,CLR,0.00,WeatherDisplay:10.36,2013-09-15 07:53:00,
2013-09-15 03:58:00,46.5,43.7,30.09,South,191,0.0,0.0,90,0.00,CLR,CLR,0.00,WeatherDisplay:10.36,2013-09-15 07:58:00,
2013-09-15 04:03:00,46.4,43.6,30.09,South,191,0.0,0.0,90,0.00,CLR,CLR,0.00,WeatherDisplay:10.36,2013-09-15 08:03:00,
2013-09-15 04:08:00,46.2,43.1,30.09,South,191,0.0,0.0,89,0.00,CLR,CLR,0.00,WeatherDisplay:10.36,2013-09-15 08:08:00,
2013-09-15 04:13:00,46.0,43.2,30.09,South,191,0.0,0.0,90,0.00,CLR,CLR,0.00,WeatherDisplay:10.36,2013-09-15 08:13:00,
2013-09-15 04:18:00,45.7,42.9,30.09,South,191,0.0,0.0,90,0.00,CLR,CLR,0.00,WeatherDisplay:10.36,2013-09-15 08:18:00,
2013-09-15 04:23:00,45.5,42.7,30.09,South,191,0.0,0.0,90,0.00,CLR,CLR,0.00,WeatherDisplay:10.36,2013-09-15 08:23:00,
2013-09-15 04:28:00,45.5,42.7,30.09,South,191,0.0,0.0,90,0.00,CLR,CLR,0.00,WeatherDisplay:10.36,2013-09-15 08:28:00,
2013-09-15 04:33:00,45.4,42.6,30.09,South,191,0.0,0.0,90,0.00,CLR,CLR,0.00,WeatherDisplay:10.36,2013-09-15 08:33:00,
2013-09-15 04:38:00,45.4,42.6,30.09,South,191,0.0,0.0,90,0.00,CLR,CLR,0.00,WeatherDisplay:10.36,2013-09-15 08:38:00,
2013-09-15 04:43:00,45.5,43.0,30.09,South,191,0.0,0.0,91,0.00,CLR,CLR,0.00,WeatherDisplay:10.36,2013-09-15 08:43:00,
2013-09-15 04:48:00,45.5,43.0,30.09,South,191,0.0,0.0,91,0.00,CLR,CLR,0.00,WeatherDisplay:10.36,2013-09-15 08:48:00,
2013-09-15 04:53:00,45.5,43.0,30.09,South,191,0.0,0.0,91,0.00,CLR,CLR,0.00,WeatherDisplay:10.36,2013-09-15 08:53:00,
2013-09-15 04:58:00,45.5,43.0,30.09,South,191,0.0,0.0,91,0.00,CLR,CLR,0.00,WeatherDisplay:10.36,2013-09-15 08:58:00,
2013-09-15 05:03:00,45.4,42.9,30.09,South,191,0.0,0.0,91,0.00,CLR,CLR,0.00,WeatherDisplay:10.36,2013-09-15 09:03:00,
2013-09-15 05:08:00,45.2,42.7,30.09,South,191,0.0,0.0,91,0.00,CLR,CLR,0.00,WeatherDisplay:10.36,2013-09-15 09:08:00,
2013-09-15 05:13:00,45.1,42.6,30.10,South,191,0.0,0.0,91,0.00,CLR,CLR,0.00,WeatherDisplay:10.36,2013-09-15 09:13:00,
2013-09-15 05:18:00,45.1,42.6,30.10,South,191,0.0,0.0,91,0.00,CLR,CLR,0.00,WeatherDisplay:10.36,2013-09-15 09:18:00,
2013-09-15 05:23:00,44.9,42.4,30.10,South,191,0.0,0.0,91,0.00,CLR,CLR,0.00,WeatherDisplay:10.36,2013-09-15 09:23:00,
2013-09-15 05:28:00,44.9,42.4,30.10,South,191,0.0,0.0,91,0.00,CLR,CLR,0.00,WeatherDisplay:10.36,2013-09-15 09:28:00,
2013-09-15 05:33:00,44.9,42.4,30.11,South,191,0.0,0.0,91,0.00,CLR,CLR,0.00,WeatherDisplay:10.36,2013-09-15 09:33:00,
2013-09-15 05:38:00,44.9,42.7,30.11,South,191,0.0,0.0,92,0.00,CLR,CLR,0.00,WeatherDisplay:10.36,2013-09-15 09:38:00,
2013-09-15 05:43:00,44.9,42.7,30.11,South,191,0.0,0.0,92,0.00,CLR,CLR,0.00,WeatherDisplay:10.36,2013-09-15 09:43:00,
2013-09-15 05:48:00,44.9,42.7,30.11,South,191,0.0,0.0,92,0.00,CLR,CLR,0.00,WeatherDisplay:10.36,2013-09-15 09:48:00,
2013-09-15 05:53:00,44.9,42.7,30.11,South,191,0.0,0.0,92,0.00,CLR,CLR,0.00,WeatherDisplay:10.36,2013-09-15 09:53:00,
2013-09-15 05:58:00,44.8,42.6,30.11,SSW,209,1.2,0.0,92,0.00,CLR,CLR,0.00,WeatherDisplay:10.36,2013-09-15 09:58:00,
2013-09-15 06:03:00,44.8,42.6,30.11,SSW,209,0.0,0.0,92,0.00,CLR,CLR,0.00,WeatherDisplay:10.36,2013-09-15 10:03:00,
2013-09-15 06:08:00,44.8,42.6,30.11,SSW,209,0.0,0.0,92,0.00,CLR,CLR,0.00,WeatherDisplay:10.36,2013-09-15 10:08:00,
2013-09-15 06:13:00,44.6,42.4,30.11,SSW,209,0.0,0.0,92,0.00,CLR,CLR,0.00,WeatherDisplay:10.36,2013-09-15 10:13:00,
2013-09-15 06:18:00,44.5,42.3,30.11,SSW,209,0.0,0.0,92,0.00,CLR,CLR,0.00,WeatherDisplay:10.36,2013-09-15 10:18:00,
2013-09-15 06:23:00,44.5,42.3,30.12,SSW,209,0.0,0.0,92,0.00,CLR,CLR,0.00,WeatherDisplay:10.36,2013-09-15 10:23:00,
2013-09-15 06:28:00,44.3,42.1,30.11,SSW,209,0.0,0.0,92,0.00,CLR,CLR,0.00,WeatherDisplay:10.36,2013-09-15 10:28:00,
2013-09-15 06:33:00,44.5,42.6,30.11,SSW,209,0.0,0.0,93,0.00,CLR,CLR,0.00,WeatherDisplay:10.36,2013-09-15 10:33:00,
2013-09-15 06:38:00,44.6,42.7,30.11,SSW,209,0.0,0.0,93,0.00,CLR,CLR,0.00,WeatherDisplay:10.36,2013-09-15 10:38:00,
2013-09-15 06:43:00,44.5,42.3,30.12,SSW,209,0.0,0.0,92,0.00,CLR,CLR,0.00,WeatherDisplay:10.36,2013-09-15 10:43:00,
2013-09-15 06:48:00,44.2,42.0,30.12,SSW,209,0.0,0.0,92,0.00,CLR,CLR,0.00,WeatherDisplay:10.36,2013-09-15 10:48:00,
2013-09-15 06:53:00,44.2,42.0,30.12,SSW,209,0.0,0.0,92,0.00,CLR,CLR,0.00,WeatherDisplay:10.36,2013-09-15 10:53:00,
2013-09-15 06:58:00,44.2,42.3,30.12,SSW,209,0.0,0.0,93,0.00,CLR,CLR,0.00,WeatherDisplay:10.36,2013-09-15 10:58:00,
2013-09-15 07:03:00,44.2,42.3,30.13,SSW,209,0.0,0.0,93,0.00,CLR,CLR,0.00,WeatherDisplay:10.36,2013-09-15 11:03:00,
2013-09-15 07:08:00,44.2,42.3,30.13,SSW,209,0.0,0.0,93,0.00,CLR,CLR,0.00,WeatherDisplay:10.36,2013-09-15 11:08:00,
2013-09-15 07:13:00,44.3,42.4,30.13,SSW,209,0.0,0.0,93,0.00,CLR,CLR,0.00,WeatherDisplay:10.36,2013-09-15 11:13:00,
2013-09-15 07:18:00,44.5,42.6,30.13,SSW,209,0.0,0.0,93,0.00,CLR,CLR,0.00,WeatherDisplay:10.36,2013-09-15 11:18:00,
2013-09-15 07:23:00,44.6,42.7,30.12,SSW,209,0.0,0.0,93,0.00,CLR,CLR,0.00,WeatherDisplay:10.36,2013-09-15 11:23:00,
2013-09-15 07:28:00,44.6,42.7,30.12,SSW,209,0.0,0.0,93,0.00,CLR,CLR,0.00,WeatherDisplay:10.36,2013-09-15 11:28:00,
2013-09-15 07:33:00,44.9,43.0,30.12,SSW,209,0.0,0.0,93,0.00,CLR,CLR,0.00,WeatherDisplay:10.36,2013-09-15 11:33:00,
2013-09-15 07:38:00,45.2,43.3,30.13,SSW,209,0.0,0.0,93,0.00,CLR,CLR,0.00,WeatherDisplay:10.36,2013-09-15 11:38:00,
2013-09-15 07:43:00,45.4,43.5,30.13,SSW,209,0.0,0.0,93,0.00,CLR,CLR,0.00,WeatherDisplay:10.36,2013-09-15 11:43:00,
2013-09-15 07:48:00,45.5,43.6,30.13,SSW,209,0.0,0.0,93,0.00,CLR,CLR,0.00,WeatherDisplay:10.36,2013-09-15 11:48:00,
2013-09-15 07:53:00,45.8,44.2,30.14,SSW,209,0.0,0.0,94,0.00,CLR,CLR,0.00,WeatherDisplay:10.36,2013-09-15 11:53:00,
2013-09-15 07:58:00,46.0,44.4,30.14,SSW,209,0.0,0.0,94,0.00,CLR,CLR,0.00,WeatherDisplay:10.36,2013-09-15 11:58:00,
2013-09-15 08:03:00,46.2,44.3,30.14,SSW,209,0.0,0.0,93,0.00,CLR,CLR,0.00,WeatherDisplay:10.36,2013-09-15 12:03:00,
2013-09-15 08:08:00,46.4,44.5,30.14,SSW,209,0.0,0.0,93,0.00,CLR,CLR,0.00,WeatherDisplay:10.36,2013-09-15 12:08:00,
2013-09-15 08:13:00,46.7,44.8,30.14,SSW,209,0.0,0.0,93,0.00,CLR,CLR,0.00,WeatherDisplay:10.36,2013-09-15 12:13:00,
2013-09-15 08:18:00,47.0,45.1,30.14,SSW,209,0.0,0.0,93,0.00,CLR,CLR,0.00,WeatherDisplay:10.36,2013-09-15 12:18:00,
2013-09-15 08:23:00,47.4,45.5,30.14,SSW,209,0.0,0.0,93,0.00,CLR,CLR,0.00,WeatherDisplay:10.36,2013-09-15 12:23:00,
2013-09-15 08:28:00,47.7,45.8,30.14,SSW,209,0.0,0.0,93,0.00,CLR,CLR,0.00,WeatherDisplay:10.36,2013-09-15 12:28:00,
2013-09-15 08:33:00,48.0,45.8,30.14,SSW,209,0.0,0.0,92,0.00,CLR,CLR,0.00,WeatherDisplay:10.36,2013-09-15 12:33:00,
2013-09-15 08:38:00,48.2,45.7,30.14,SSW,209,0.0,0.0,91,0.00,CLR,CLR,0.00,WeatherDisplay:10.36,2013-09-15 12:38:00,
2013-09-15 08:43:00,48.5,45.7,30.15,SSW,209,0.0,0.0,90,0.00,CLR,CLR,0.00,WeatherDisplay:10.36,2013-09-15 12:43:00,
2013-09-15 08:48:00,48.8,46.0,30.15,SSW,209,0.0,0.0,90,0.00,CLR,CLR,0.00,WeatherDisplay:10.36,2013-09-15 12:48:00,
2013-09-15 08:53:00,49.1,46.0,30.14,SSW,209,0.0,0.0,89,0.00,CLR,CLR,0.00,WeatherDisplay:10.36,2013-09-15 12:53:00,
2013-09-15 08:58:00,49.4,46.0,30.14,SSW,209,0.0,0.0,88,0.00,CLR,CLR,0.00,WeatherDisplay:10.36,2013-09-15 12:58:00,
2013-09-15 09:03:00,49.8,45.8,30.15,SSW,209,0.0,0.0,86,0.00,CLR,CLR,0.00,WeatherDisplay:10.36,2013-09-15 13:03:00,
2013-09-15 09:08:00,50.2,45.6,30.15,SSW,209,0.0,0.0,84,0.00,CLR,CLR,0.00,WeatherDisplay:10.36,2013-09-15 13:08:00,
2013-09-15 09:13:00,50.7,45.4,30.15,SSW,209,0.0,0.0,82,0.00,CLR,CLR,0.00,WeatherDisplay:10.36,2013-09-15 13:13:00,
2013-09-15 09:18:00,51.1,45.8,30.15,SSW,209,0.0,0.0,82,0.00,CLR,CLR,0.00,WeatherDisplay:10.36,2013-09-15 13:18:00,
2013-09-15 09:23:00,51.6,46.3,30.15,SSW,209,0.0,0.0,82,0.00,CLR,CLR,0.00,WeatherDisplay:10.36,2013-09-15 13:23:00,
2013-09-15 09:28:00,52.0,46.7,30.15,SSW,209,0.0,0.0,82,0.00,CLR,CLR,0.00,WeatherDisplay:10.36,2013-09-15 13:28:00,
2013-09-15 09:33:00,52.5,46.8,30.15,SSW,209,0.0,0.0,81,0.00,CLR,CLR,0.00,WeatherDisplay:10.36,2013-09-15 13:33:00,
2013-09-15 09:38:00,52.9,46.9,30.15,SSW,209,0.0,0.0,80,0.00,CLR,CLR,0.00,WeatherDisplay:10.36,2013-09-15 13:38:00,
2013-09-15 09:43:00,53.5,47.1,30.15,SSW,209,0.0,0.0,79,0.00,CLR,CLR,0.00,WeatherDisplay:10.36,2013-09-15 13:43:00,
2013-09-15 09:48:00,54.1,47.7,30.15,SSW,209,0.0,0.0,79,0.00,CLR,CLR,0.00,WeatherDisplay:10.36,2013-09-15 13:48:00,
2013-09-15 09:53:00,54.7,48.0,30.15,SSW,209,0.0,0.0,78,0.00,CLR,CLR,0.00,WeatherDisplay:10.36,2013-09-15 13:53:00,
2013-09-15 09:58:00,55.3,48.6,30.15,SSW,209,0.0,0.0,78,0.00,CLR,CLR,0.00,WeatherDisplay:10.36,2013-09-15 13:58:00,
2013-09-15 10:03:00,55.9,48.8,30.15,SSW,209,0.0,0.0,77,0.00,CLR,CLR,0.00,WeatherDisplay:10.36,2013-09-15 14:03:00,
2013-09-15 10:08:00,56.7,48.5,30.15,SSW,209,0.0,0.0,74,0.00,CLR,CLR,0.00,WeatherDisplay:10.36,2013-09-15 14:08:00,
2013-09-15 10:13:00,57.2,47.9,30.15,WSW,245,1.0,1.0,71,0.00,CLR,CLR,0.00,WeatherDisplay:10.36,2013-09-15 14:13:00,
2013-09-15 10:18:00,57.5,48.2,30.15,WSW,245,0.0,0.0,71,0.00,CLR,CLR,0.00,WeatherDisplay:10.36,2013-09-15 14:18:00,
2013-09-15 10:23:00,58.0,48.3,30.15,WSW,245,1.2,0.0,70,0.00,CLR,CLR,0.00,WeatherDisplay:10.36,2013-09-15 14:23:00,
2013-09-15 10:28:00,58.3,47.4,30.14,WSW,245,0.0,0.0,67,0.00,CLR,CLR,0.00,WeatherDisplay:10.36,2013-09-15 14:28:00,
2013-09-15 10:33:00,58.9,48.0,30.14,WSW,245,1.2,1.2,67,0.00,CLR,CLR,0.00,WeatherDisplay:10.36,2013-09-15 14:33:00,
2013-09-15 10:38:00,59.2,47.0,30.14,WSW,245,0.0,0.0,64,0.00,CLR,CLR,0.00,WeatherDisplay:10.36,2013-09-15 14:38:00,
2013-09-15 10:43:00,59.6,47.8,30.14,WSW,238,0.0,0.0,65,0.00,CLR,CLR,0.00,WeatherDisplay:10.36,2013-09-15 14:43:00,
2013-09-15 10:48:00,60.1,45.3,30.14,SSE,168,0.0,0.0,58,0.00,CLR,CLR,0.00,WeatherDisplay:10.36,2013-09-15 14:48:00,
2013-09-15 10:53:00,60.5,44.7,30.14,SW,236,2.0,2.0,56,0.00,CLR,CLR,0.00,WeatherDisplay:10.36,2013-09-15 14:53:00,
2013-09-15 10:58:00,61.0,43.7,30.14,SW,236,0.0,0.0,53,0.00,CLR,CLR,0.00,WeatherDisplay:10.36,2013-09-15 14:58:00,
2013-09-15 11:03:00,61.5,42.7,30.14,SW,236,0.0,0.0,50,0.00,CLR,CLR,0.00,WeatherDisplay:10.36,2013-09-15 15:03:00,
2013-09-15 11:08:00,62.0,43.7,30.14,SW,221,1.2,0.0,51,0.00,CLR,CLR,0.00,WeatherDisplay:10.36,2013-09-15 15:08:00,
2013-09-15 11:13:00,62.4,42.4,30.14,SW,221,0.0,0.0,48,0.00,CLR,CLR,0.00,WeatherDisplay:10.36,2013-09-15 15:13:00,
2013-09-15 11:18:00,62.6,42.6,30.14,SW,221,1.2,0.0,48,0.00,CLR,CLR,0.00,WeatherDisplay:10.36,2013-09-15 15:18:00,
2013-09-15 11:23:00,63.1,42.5,30.14,WSW,243,1.2,1.2,47,0.00,CLR,CLR,0.00,WeatherDisplay:10.36,2013-09-15 15:23:00,
2013-09-15 11:28:00,63.2,41.5,30.14,SW,233,0.0,0.0,45,0.00,CLR,CLR,0.00,WeatherDisplay:10.36,2013-09-15 15:28:00,
2013-09-15 11:33:00,63.4,42.2,30.13,SSW,194,3.5,0.0,46,0.00,CLR,CLR,0.00,WeatherDisplay:10.36,2013-09-15 15:33:00,
2013-09-15 11:38:00,63.7,42.5,30.13,West,278,3.5,3.5,46,0.00,CLR,CLR,0.00,WeatherDisplay:10.36,2013-09-15 15:38:00,
2013-09-15 11:43:00,63.9,42.1,30.13,SW,225,2.3,0.0,45,0.00,CLR,CLR,0.00,WeatherDisplay:10.36,2013-09-15 15:43:00,
2013-09-15 11:48:00,64.2,42.4,30.13,SW,217,1.2,1.2,45,0.00,CLR,CLR,0.00,WeatherDisplay:10.36,2013-09-15 15:48:00,
2013-09-15 11:53:00,64.2,41.2,30.12,SW,222,1.2,0.0,43,0.00,CLR,CLR,0.00,WeatherDisplay:10.36,2013-09-15 15:53:00,
2013-09-15 11:58:00,64.2,42.4,30.12,SW,222,0.0,0.0,45,0.00,CLR,CLR,0.00,WeatherDisplay:10.36,2013-09-15 15:58:00,
2013-09-15 12:03:00,64.5,43.3,30.12,SW,214,3.5,3.5,46,0.00,CLR,CLR,0.00,WeatherDisplay:10.36,2013-09-15 16:03:00,
2013-09-15 12:08:00,65.2,45.0,30.12,SW,218,0.0,0.0,48,0.00,CLR,CLR,0.00,WeatherDisplay:10.36,2013-09-15 16:08:00,
2013-09-15 12:13:00,65.6,44.3,30.12,West,262,0.0,0.0,46,0.00,CLR,CLR,0.00,WeatherDisplay:10.36,2013-09-15 16:13:00,
2013-09-15 12:18:00,66.0,43.5,30.12,West,262,0.0,0.0,44,0.00,CLR,CLR,0.00,WeatherDisplay:10.36,2013-09-15 16:18:00,
2013-09-15 12:23:00,66.3,44.3,30.12,SW,233,1.2,1.2,45,0.00,CLR,CLR,0.00,WeatherDisplay:10.36,2013-09-15 16:23:00,
2013-09-15 12:28:00,66.6,44.6,30.12,SW,234,0.0,0.0,45,0.00,CLR,CLR,0.00,WeatherDisplay:10.36,2013-09-15 16:28:00,
2013-09-15 12:33:00,66.9,43.7,30.12,SW,233,0.0,0.0,43,0.00,CLR,CLR,0.00,WeatherDisplay:10.36,2013-09-15 16:33:00,
2013-09-15 12:38:00,67.1,43.8,30.12,West,267,0.0,0.0,43,0.00,CLR,CLR,0.00,WeatherDisplay:10.36,2013-09-15 16:38:00,
2013-09-15 12:43:00,67.1,43.2,30.11,West,267,0.0,0.0,42,0.00,CLR,CLR,0.00,WeatherDisplay:10.36,2013-09-15 16:43:00,
2013-09-15 12:48:00,67.3,44.0,30.11,South,184,2.3,2.3,43,0.00,CLR,CLR,0.00,WeatherDisplay:10.36,2013-09-15 16:48:00,
2013-09-15 12:53:00,67.6,44.9,30.11,SSW,203,0.0,0.0,44,0.00,CLR,CLR,0.00,WeatherDisplay:10.36,2013-09-15 16:53:00,
2013-09-15 12:58:00,67.6,44.3,30.11,NNW,337,1.2,1.2,43,0.00,CLR,CLR,0.00,WeatherDisplay:10.36,2013-09-15 16:58:00,
2013-09-15 13:03:00,67.9,43.3,30.11,NNW,337,0.0,0.0,41,0.00,CLR,CLR,0.00,WeatherDisplay:10.36,2013-09-15 17:03:00,
2013-09-15 13:08:00,68.1,44.1,30.11,SSW,212,3.5,0.0,42,0.00,CLR,CLR,0.00,WeatherDisplay:10.36,2013-09-15 17:08:00,
2013-09-15 13:13:00,68.3,43.0,30.10,SW,218,5.8,5.8,40,0.00,CLR,CLR,0.00,WeatherDisplay:10.36,2013-09-15 17:13:00,
2013-09-15 13:18:00,68.1,43.5,30.10,SW,218,0.0,0.0,41,0.00,CLR,CLR,0.00,WeatherDisplay:10.36,2013-09-15 17:18:00,
2013-09-15 13:23:00,68.4,44.4,30.10,SW,218,0.0,0.0,42,0.00,CLR,CLR,0.00,WeatherDisplay:10.36,2013-09-15 17:23:00,
2013-09-15 13:28:00,68.9,42.9,30.10,SW,224,3.5,3.5,39,0.00,CLR,CLR,0.00,WeatherDisplay:10.36,2013-09-15 17:28:00,
2013-09-15 13:33:00,69.1,43.1,30.10,SW,234,2.3,2.3,39,0.00,CLR,CLR,0.00,WeatherDisplay:10.36,2013-09-15 17:33:00,
2013-09-15 13:38:00,69.3,45.2,30.09,SW,233,0.0,0.0,42,0.00,CLR,CLR,0.00,WeatherDisplay:10.36,2013-09-15 17:38:00,
2013-09-15 13:43:00,69.8,44.4,30.09,SSW,209,0.0,0.0,40,0.00,CLR,CLR,0.00,WeatherDisplay:10.36,2013-09-15 17:43:00,
2013-09-15 13:48:00,70.1,46.6,30.09,NNW,332,0.0,0.0,43,0.00,CLR,CLR,0.00,WeatherDisplay:10.36,2013-09-15 17:48:00,
2013-09-15 13:53:00,70.3,44.8,30.09,WSW,239,1.2,0.0,40,0.00,CLR,CLR,0.00,WeatherDisplay:10.36,2013-09-15 17:53:00,
2013-09-15 13:58:00,70.4,43.6,30.09,WSW,239,0.0,0.0,38,0.00,CLR,CLR,0.00,WeatherDisplay:10.36,2013-09-15 17:58:00,
2013-09-15 14:03:00,70.6,45.7,30.09,WSW,239,2.3,2.3,41,0.00,CLR,CLR,0.00,WeatherDisplay:10.36,2013-09-15 18:03:00,
2013-09-15 14:08:00,70.8,45.3,30.09,SW,217,2.3,2.3,40,0.00,CLR,CLR,0.00,WeatherDisplay:10.36,2013-09-15 18:08:00,
2013-09-15 14:13:00,70.6,45.1,30.08,WSW,241,3.5,3.5,40,0.00,CLR,CLR,0.00,WeatherDisplay:10.36,2013-09-15 18:13:00,
2013-09-15 14:18:00,69.9,46.4,30.08,SSE,162,0.0,0.0,43,0.00,CLR,CLR,0.00,WeatherDisplay:10.36,2013-09-15 18:18:00,
2013-09-15 14:23:00,69.4,44.7,30.08,SW,229,2.3,2.3,41,0.00,CLR,CLR,0.00,WeatherDisplay:10.36,2013-09-15 18:23:00,
2013-09-15 14:28:00,69.3,46.4,30.08,SW,221,0.0,0.0,44,0.00,CLR,CLR,0.00,WeatherDisplay:10.36,2013-09-15 18:28:00,
2013-09-15 14:33:00,69.1,45.7,30.08,SW,221,0.0,0.0,43,0.00,CLR,CLR,0.00,WeatherDisplay:10.36,2013-09-15 18:33:00,
2013-09-15 14:38:00,69.1,45.7,30.08,SSW,203,2.3,2.3,43,0.00,CLR,CLR,0.00,WeatherDisplay:10.36,2013-09-15 18:38:00,
2013-09-15 14:43:00,69.3,44.6,30.08,WSW,245,3.5,3.5,41,0.00,CLR,CLR,0.00,WeatherDisplay:10.36,2013-09-15 18:43:00,
2013-09-15 14:48:00,69.1,44.4,30.08,WSW,243,0.0,0.0,41,0.00,CLR,CLR,0.00,WeatherDisplay:10.36,2013-09-15 18:48:00,
2013-09-15 14:53:00,69.1,44.4,30.08,West,274,3.5,3.5,41,0.00,CLR,CLR,0.00,WeatherDisplay:10.36,2013-09-15 18:53:00,
2013-09-15 14:58:00,69.3,43.9,30.07,WSW,244,1.2,0.0,40,0.00,CLR,CLR,0.00,WeatherDisplay:10.36,2013-09-15 18:58:00,
2013-09-15 15:03:00,69.9,43.1,30.07,WSW,243,3.5,3.5,38,0.00,CLR,CLR,0.00,WeatherDisplay:10.36,2013-09-15 19:03:00,
2013-09-15 15:08:00,70.4,42.2,30.06,WSW,237,0.0,0.0,36,0.00,CLR,CLR,0.00,WeatherDisplay:10.36,2013-09-15 19:08:00,
2013-09-15 15:13:00,70.9,44.7,30.06,West,271,1.2,1.2,39,0.00,CLR,CLR,0.00,WeatherDisplay:10.36,2013-09-15 19:13:00,
2013-09-15 15:18:00,71.3,43.0,30.06,WSW,246,1.2,0.0,36,0.00,CLR,CLR,0.00,WeatherDisplay:10.36,2013-09-15 19:18:00,
2013-09-15 15:19:00,71.5,45.2,30.06,WSW,246,0.0,0.0,39,0.00,CLR,CLR,0.00,WeatherDisplay:10.36,2013-09-15 19:19:00,
2013-09-15 15:24:00,71.8,41.9,30.06,SW,218,1.2,1.2,34,0.00,CLR,CLR,0.00,WeatherDisplay:10.36,2013-09-15 19:24:00,
2013-09-15 15:29:00,72.3,42.3,30.06,SW,231,0.0,0.0,34,0.00,CLR,CLR,0.00,WeatherDisplay:10.36,2013-09-15 19:29:00,
2013-09-15 15:34:00,72.7,42.7,30.06,SW,236,3.5,3.5,34,0.00,CLR,CLR,0.00,WeatherDisplay:10.36,2013-09-15 19:34:00,
2013-09-15 15:39:00,72.8,42.8,30.05,SW,236,3.5,3.5,34,0.00,CLR,CLR,0.00,WeatherDisplay:10.36,2013-09-15 19:39:00,
2013-09-15 15:44:00,72.5,44.0,30.05,WSW,248,3.5,3.5,36,0.00,CLR,CLR,0.00,WeatherDisplay:10.36,2013-09-15 19:44:00,
2013-09-15 15:49:00,72.1,42.9,30.05,SW,227,0.0,0.0,35,0.00,CLR,CLR,0.00,WeatherDisplay:10.36,2013-09-15 19:49:00,
2013-09-15 15:54:00,72.0,43.6,30.05,SW,227,1.0,1.0,36,0.00,CLR,CLR,0.00,WeatherDisplay:10.36,2013-09-15 19:54:00,
2013-09-15 15:59:00,72.5,43.3,30.04,South,176,1.2,1.2,35,0.00,CLR,CLR,0.00,WeatherDisplay:10.36,2013-09-15 19:59:00,
2013-09-15 16:04:00,72.3,43.1,30.04,South,176,0.0,0.0,35,0.00,CLR,CLR,0.00,WeatherDisplay:10.36,2013-09-15 20:04:00,
2013-09-15 16:09:00,72.1,42.2,30.04,SSW,201,1.2,0.0,34,0.00,CLR,CLR,0.00,WeatherDisplay:10.36,2013-09-15 20:09:00,
2013-09-15 16:14:00,72.0,42.8,30.04,SSW,203,0.0,0.0,35,0.00,CLR,CLR,0.00,WeatherDisplay:10.36,2013-09-15 20:14:00,
2013-09-15 16:19:00,71.8,44.1,30.04,South,184,0.0,0.0,37,0.00,CLR,CLR,0.00,WeatherDisplay:10.36,2013-09-15 20:19:00,
2013-09-15 16:24:00,71.5,44.5,30.04,SSW,198,0.0,0.0,38,0.00,CLR,CLR,0.00,WeatherDisplay:10.36,2013-09-15 20:24:00,
2013-09-15 16:29:00,71.1,43.5,30.04,SE,132,1.2,1.2,37,0.00,CLR,CLR,0.00,WeatherDisplay:10.36,2013-09-15 20:29:00,
2013-09-15 16:34:00,70.9,43.3,30.04,SE,142,1.2,1.2,37,0.00,CLR,CLR,0.00,WeatherDisplay:10.36,2013-09-15 20:34:00,
2013-09-15 16:39:00,70.9,42.6,30.04,West,269,3.5,3.5,36,0.00,CLR,CLR,0.00,WeatherDisplay:10.36,2013-09-15 20:39:00,
2013-09-15 16:44:00,71.6,43.9,30.03,West,269,1.2,0.0,37,0.00,CLR,CLR,0.00,WeatherDisplay:10.36,2013-09-15 20:44:00,
2013-09-15 16:49:00,72.3,45.3,30.03,WSW,239,4.6,4.6,38,0.00,CLR,CLR,0.00,WeatherDisplay:10.36,2013-09-15 20:49:00,
2013-09-15 16:54:00,72.8,45.0,30.03,SW,233,4.6,4.6,37,0.00,CLR,CLR,0.00,WeatherDisplay:10.36,2013-09-15 20:54:00,
2013-09-15 16:59:00,72.7,46.3,30.03,SW,236,2.3,2.3,39,0.00,CLR,CLR,0.00,WeatherDisplay:10.36,2013-09-15 20:59:00,
2013-09-15 17:04:00,72.5,46.1,30.03,SW,236,2.3,2.3,39,0.00,CLR,CLR,0.00,WeatherDisplay:10.36,2013-09-15 21:04:00,
2013-09-15 17:08:00,72.1,45.1,30.03,SW,215,1.2,0.0,38,0.00,CLR,CLR,0.00,WeatherDisplay:10.36,2013-09-15 21:08:00,
2013-09-15 17:09:00,72.1,45.1,30.03,SW,215,1.2,0.0,38,0.00,CLR,CLR,0.00,WeatherDisplay:10.36,2013-09-15 21:09:00,
2013-09-15 17:14:00,72.1,45.1,30.03,SW,215,1.2,0.0,38,0.00,CLR,CLR,0.00,WeatherDisplay:10.36,2013-09-15 21:14:00,
2013-09-15 17:25:00,72.7,44.9,30.03,WSW,245,0.0,0.0,37,0.00,CLR,CLR,0.00,WeatherDisplay:10.36,2013-09-15 21:25:00,
2013-09-15 17:30:00,72.3,43.8,30.03,SE,141,2.3,0.0,36,0.00,CLR,CLR,0.00,WeatherDisplay:10.36,2013-09-15 21:30:00,
2013-09-15 17:35:00,71.8,43.4,30.03,South,184,0.0,0.1,36,0.00,CLR,CLR,0.00,WeatherDisplay:10.36,2013-09-15 21:35:00,
2013-09-15 17:40:00,71.3,43.0,30.03,SSW,209,1.2,0.0,36,0.00,CLR,CLR,0.00,WeatherDisplay:10.36,2013-09-15 21:40:00,
2013-09-15 17:45:00,70.4,44.9,30.03,WSW,250,3.5,0.0,40,0.00,CLR,CLR,0.00,WeatherDisplay:10.36,2013-09-15 21:45:00,
2013-09-15 17:50:00,69.9,45.1,30.03,ENE,73,2.3,0.0,41,0.00,CLR,CLR,0.00,WeatherDisplay:10.36,2013-09-15 21:50:00,
2013-09-15 17:55:00,69.6,46.1,30.03,ENE,73,0.0,0.0,43,0.00,CLR,CLR,0.00,WeatherDisplay:10.36,2013-09-15 21:55:00,
2013-09-15 18:00:00,69.1,46.3,30.03,ENE,74,0.0,0.0,44,0.00,CLR,CLR,0.00,WeatherDisplay:10.36,2013-09-15 22:00:00,
2013-09-15 18:05:00,68.9,46.7,30.03,ENE,74,0.0,0.0,45,0.00,CLR,CLR,0.00,WeatherDisplay:10.36,2013-09-15 22:05:00,
2013-09-15 18:10:00,68.8,47.7,30.03,ENE,74,0.0,0.0,47,0.00,CLR,CLR,0.00,WeatherDisplay:10.36,2013-09-15 22:10:00,
2013-09-15 18:15:00,68.6,48.1,30.03,ENE,74,0.0,0.0,48,0.00,CLR,CLR,0.00,WeatherDisplay:10.36,2013-09-15 22:15:00,
2013-09-15 18:20:00,68.3,47.8,30.03,ENE,74,0.0,0.0,48,0.00,CLR,CLR,0.00,WeatherDisplay:10.36,2013-09-15 22:20:00,
2013-09-15 18:25:00,67.9,49.1,30.03,ENE,74,0.0,0.0,51,0.00,CLR,CLR,0.00,WeatherDisplay:10.36,2013-09-15 22:25:00,
2013-09-15 18:30:00,67.4,48.6,30.03,ENE,74,0.0,0.0,51,0.00,CLR,CLR,0.00,WeatherDisplay:10.36,2013-09-15 22:30:00,
2013-09-15 18:35:00,67.1,49.4,30.03,ENE,74,0.0,0.0,53,0.00,CLR,CLR,0.00,WeatherDisplay:10.36,2013-09-15 22:35:00,
2013-09-15 18:40:00,66.8,49.6,30.03,ENE,74,0.0,0.0,54,0.00,CLR,CLR,0.00,WeatherDisplay:10.36,2013-09-15 22:40:00,
2013-09-15 18:45:00,66.4,49.2,30.02,ENE,74,0.0,0.0,54,0.00,CLR,CLR,0.00,WeatherDisplay:10.36,2013-09-15 22:45:00,
2013-09-15 18:50:00,66.0,48.9,30.03,ENE,74,0.0,0.0,54,0.00,CLR,CLR,0.00,WeatherDisplay:10.36,2013-09-15 22:50:00,
2013-09-15 18:55:00,65.6,49.5,30.03,ENE,74,0.0,0.0,56,0.00,CLR,CLR,0.00,WeatherDisplay:10.36,2013-09-15 22:55:00,
2013-09-15 19:00:00,65.2,49.1,30.03,ENE,74,0.0,0.0,56,0.00,CLR,CLR,0.00,WeatherDisplay:10.36,2013-09-15 23:00:00,
2013-09-15 19:05:00,65.0,49.4,30.02,ENE,74,0.0,0.0,57,0.00,CLR,CLR,0.00,WeatherDisplay:10.36,2013-09-15 23:05:00,
2013-09-15 19:10:00,64.7,49.6,30.03,ENE,74,0.0,0.0,58,0.00,CLR,CLR,0.00,WeatherDisplay:10.36,2013-09-15 23:10:00,
2013-09-15 19:15:00,64.5,49.8,30.03,ENE,74,0.0,0.0,59,0.00,CLR,CLR,0.00,WeatherDisplay:10.36,2013-09-15 23:15:00,
2013-09-15 19:20:00,64.3,49.7,30.03,ENE,74,0.0,0.0,59,0.00,CLR,CLR,0.00,WeatherDisplay:10.36,2013-09-15 23:20:00,
2013-09-15 19:25:00,64.0,49.8,30.03,ENE,74,0.0,0.0,60,0.00,CLR,CLR,0.00,WeatherDisplay:10.36,2013-09-15 23:25:00,
2013-09-15 19:30:00,63.9,50.2,30.03,ENE,74,0.0,0.0,61,0.00,CLR,CLR,0.00,WeatherDisplay:10.36,2013-09-15 23:30:00,
2013-09-15 19:35:00,63.5,49.4,30.03,ENE,74,0.0,0.0,60,0.00,CLR,CLR,0.00,WeatherDisplay:10.36,2013-09-15 23:35:00,
2013-09-15 19:40:00,63.2,50.0,30.02,ENE,74,0.0,0.0,62,0.00,CLR,CLR,0.00,WeatherDisplay:10.36,2013-09-15 23:40:00,
2013-09-15 19:45:00,62.7,51.2,30.02,ENE,74,0.0,0.0,66,0.00,CLR,CLR,0.00,WeatherDisplay:10.36,2013-09-15 23:45:00,
2013-09-15 19:50:00,62.4,51.3,30.03,ENE,74,0.0,0.0,67,0.00,CLR,CLR,0.00,WeatherDisplay:10.36,2013-09-15 23:50:00,
2013-09-15 19:55:00,62.3,51.6,30.03,ENE,74,0.0,0.0,68,0.00,CLR,CLR,0.00,WeatherDisplay:10.36,2013-09-15 23:55:00,
2013-09-15 20:00:00,62.0,51.3,30.03,ENE,74,0.0,0.0,68,0.00,CLR,CLR,0.00,WeatherDisplay:10.36,2013-09-16 00:00:00,
2013-09-15 20:05:00,61.6,51.7,30.02,ENE,74,0.0,0.0,70,0.00,CLR,CLR,0.00,WeatherDisplay:10.36,2013-09-16 00:05:00,
2013-09-15 20:10:00,61.5,52.0,30.03,ENE,74,0.0,0.0,71,0.00,CLR,CLR,0.00,WeatherDisplay:10.36,2013-09-16 00:10:00,
2013-09-15 20:15:00,61.3,51.8,30.03,ENE,74,0.0,0.0,71,0.00,CLR,CLR,0.00,WeatherDisplay:10.36,2013-09-16 00:15:00,
2013-09-15 20:20:00,61.2,51.3,30.02,ENE,74,0.0,0.0,70,0.00,CLR,CLR,0.00,WeatherDisplay:10.36,2013-09-16 00:20:00,
2013-09-15 20:25:00,61.2,51.7,30.03,ENE,74,0.0,0.0,71,0.00,CLR,CLR,0.00,WeatherDisplay:10.36,2013-09-16 00:25:00,
2013-09-15 20:30:00,61.0,51.5,30.03,ENE,74,0.0,0.0,71,0.00,CLR,CLR,0.00,WeatherDisplay:10.36,2013-09-16 00:30:00,
2013-09-15 20:35:00,60.7,52.0,30.03,ENE,74,0.0,0.0,73,0.00,CLR,CLR,0.00,WeatherDisplay:10.36,2013-09-16 00:35:00,
2013-09-15 20:40:00,60.4,52.1,30.03,ENE,74,0.0,0.0,74,0.00,CLR,CLR,0.00,WeatherDisplay:10.36,2013-09-16 00:40:00,
2013-09-15 20:45:00,60.1,52.1,30.03,ENE,74,0.0,0.0,75,0.00,CLR,CLR,0.00,WeatherDisplay:10.36,2013-09-16 00:45:00,
2013-09-15 20:50:00,59.8,52.2,30.03,ENE,74,0.0,0.0,76,0.00,CLR,CLR,0.00,WeatherDisplay:10.36,2013-09-16 00:50:00,
2013-09-15 20:55:00,59.5,52.3,30.03,ENE,74,0.0,0.0,77,0.00,CLR,CLR,0.00,WeatherDisplay:10.36,2013-09-16 00:55:00,
2013-09-15 21:00:00,59.2,52.3,30.03,ENE,74,0.0,0.0,78,0.00,CLR,CLR,0.00,WeatherDisplay:10.36,2013-09-16 01:00:00,
2013-09-15 21:05:00,59.0,52.5,30.04,ENE,74,0.0,0.0,79,0.00,CLR,CLR,0.00,WeatherDisplay:10.36,2013-09-16 01:05:00,
2013-09-15 21:10:00,58.9,52.7,30.04,ENE,74,0.0,0.0,80,0.00,CLR,CLR,0.00,WeatherDisplay:10.36,2013-09-16 01:10:00,
2013-09-15 21:15:00,58.7,52.9,30.04,ENE,74,0.0,0.0,81,0.00,CLR,CLR,0.00,WeatherDisplay:10.36,2013-09-16 01:15:00,
2013-09-15 21:20:00,58.6,52.8,30.04,ENE,74,0.0,0.0,81,0.00,CLR,CLR,0.00,WeatherDisplay:10.36,2013-09-16 01:20:00,
2013-09-15 21:25:00,58.6,53.1,30.04,ENE,74,0.0,0.0,82,0.00,CLR,CLR,0.00,WeatherDisplay:10.36,2013-09-16 01:25:00,
2013-09-15 21:30:00,58.6,53.1,30.04,ENE,74,0.0,0.0,82,0.00,CLR,CLR,0.00,WeatherDisplay:10.36,2013-09-16 01:30:00,
2013-09-15 21:35:00,58.4,52.9,30.04,ENE,74,0.0,0.0,82,0.00,CLR,CLR,0.00,WeatherDisplay:10.36,2013-09-16 01:35:00,
2013-09-15 21:40:00,58.4,52.9,30.04,ENE,74,0.0,0.0,82,0.00,CLR,CLR,0.00,WeatherDisplay:10.36,2013-09-16 01:40:00,
2013-09-15 21:46:00,58.4,53.3,30.04,ENE,74,0.0,0.0,83,0.00,CLR,CLR,0.00,WeatherDisplay:10.36,2013-09-16 01:46:00,
2013-09-15 21:51:00,58.3,53.2,30.04,ENE,74,0.0,0.0,83,0.00,CLR,CLR,0.00,WeatherDisplay:10.36,2013-09-16 01:51:00,
2013-09-15 21:56:00,58.1,53.0,30.04,ENE,74,0.0,0.0,83,0.00,CLR,CLR,0.00,WeatherDisplay:10.36,2013-09-16 01:56:00,
2013-09-15 22:01:00,58.1,53.0,30.04,ENE,74,0.0,0.0,83,0.00,CLR,CLR,0.00,WeatherDisplay:10.36,2013-09-16 02:01:00,
2013-09-15 22:06:00,58.1,53.0,30.03,ENE,74,0.0,0.0,83,0.00,CLR,CLR,0.00,WeatherDisplay:10.36,2013-09-16 02:06:00,
2013-09-15 22:11:00,58.1,53.0,30.04,ENE,74,0.0,0.0,83,0.00,CLR,CLR,0.00,WeatherDisplay:10.36,2013-09-16 02:11:00,
2013-09-15 22:16:00,58.0,52.9,30.03,ENE,74,0.0,0.0,83,0.00,CLR,CLR,0.00,WeatherDisplay:10.36,2013-09-16 02:16:00,
2013-09-15 22:21:00,57.8,53.0,30.03,ENE,74,0.0,0.0,84,0.00,CLR,CLR,0.00,WeatherDisplay:10.36,2013-09-16 02:21:00,
2013-09-15 22:26:00,57.6,52.8,30.03,ENE,74,0.0,0.0,84,0.00,CLR,CLR,0.00,WeatherDisplay:10.36,2013-09-16 02:26:00,
2013-09-15 22:31:00,57.5,52.7,30.03,ENE,74,0.0,0.0,84,0.00,CLR,CLR,0.00,WeatherDisplay:10.36,2013-09-16 02:31:00,
2013-09-15 22:36:00,57.3,52.5,30.03,ENE,74,0.0,0.0,84,0.00,CLR,CLR,0.00,WeatherDisplay:10.36,2013-09-16 02:36:00,
2013-09-15 22:41:00,57.2,52.4,30.04,ENE,74,0.0,0.0,84,0.00,CLR,CLR,0.00,WeatherDisplay:10.36,2013-09-16 02:41:00,
2013-09-15 22:46:00,57.0,52.5,30.03,ENE,74,0.0,0.0,85,0.00,CLR,CLR,0.00,WeatherDisplay:10.36,2013-09-16 02:46:00,
2013-09-15 22:51:00,56.9,52.4,30.03,ENE,74,0.0,0.0,85,0.00,CLR,CLR,0.00,WeatherDisplay:10.36,2013-09-16 02:51:00,
2013-09-15 22:56:00,56.7,52.6,30.03,ENE,74,0.0,0.0,86,0.00,CLR,CLR,0.00,WeatherDisplay:10.36,2013-09-16 02:56:00,
2013-09-15 23:01:00,56.7,52.9,30.03,ENE,74,0.0,0.0,87,0.00,CLR,CLR,0.00,WeatherDisplay:10.36,2013-09-16 03:01:00,
2013-09-15 23:06:00,56.6,52.8,30.03,ENE,74,0.0,0.0,87,0.00,CLR,CLR,0.00,WeatherDisplay:10.36,2013-09-16 03:06:00,
2013-09-15 23:11:00,56.6,52.8,30.03,ENE,74,0.0,0.0,87,0.00,CLR,CLR,0.00,WeatherDisplay:10.36,2013-09-16 03:11:00,
2013-09-15 23:16:00,56.6,52.8,30.03,ENE,74,0.0,0.0,87,0.00,CLR,CLR,0.00,WeatherDisplay:10.36,2013-09-16 03:16:00,
2013-09-15 23:21:00,56.6,52.8,30.03,ENE,74,0.0,0.0,87,0.00,CLR,CLR,0.00,WeatherDisplay:10.36,2013-09-16 03:21:00,
2013-09-15 23:26:00,56.6,52.8,30.03,ENE,74,0.0,0.0,87,0.00,CLR,CLR,0.00,WeatherDisplay:10.36,2013-09-16 03:26:00,
2013-09-15 23:31:00,56.7,52.9,30.03,ENE,74,0.0,0.0,87,0.00,CLR,CLR,0.00,WeatherDisplay:10.36,2013-09-16 03:31:00,
2013-09-15 23:36:00,56.7,52.9,30.03,ENE,74,0.0,0.0,87,0.00,CLR,CLR,0.00,WeatherDisplay:10.36,2013-09-16 03:36:00,
2013-09-15 23:41:00,56.7,52.9,30.03,ENE,74,0.0,0.0,87,0.00,CLR,CLR,0.00,WeatherDisplay:10.36,2013-09-16 03:41:00,
2013-09-15 23:46:00,56.6,52.8,30.04,ENE,74,0.0,0.0,87,0.00,CLR,CLR,0.00,WeatherDisplay:10.36,2013-09-16 03:46:00,
2013-09-15 23:51:00,56.6,53.1,30.03,ENE,74,0.0,0.0,88,0.00,CLR,CLR,0.00,WeatherDisplay:10.36,2013-09-16 03:51:00,